Retour au catalogue

ATLAS 5 CENTAUR DEB

LostHEO
NORAD 43997·DEBRIS·🇺🇸 United States

Lancé Sep 17, 2014 depuis Cape Canaveral Space Force Station

Loading…

Prochains Passages (prochaines 24 heures)

TLE

PériméSource: Space-Track

Époque: Apr 22, 2020, 22:51 UTC

1 43997U 14055BC  20113.95268248 -.00000100  00000-0  00000+0 0  9999
2 43997  22.2877 351.2553 4736170 155.3333 237.5577  1.87333724 10428

Suivez ATLAS 5 CENTAUR DEB en temps réel avec AllMySat

Download on the App Store